Accueil
METAR-TAF:

METAR-TAF

Aéroports :

Taunton Municipal Airport (King Field)

Taunton, Massachusetts, États-Unis

latitude: 41-52-32N, longitude: 071-01-16W, altitude: 13 m

Observation

Le bulletin a été fait il y a 33 minutes, à 12:52 UTC
Vent calme
Température 13°C
Humidité 88%
Pression 1033 hPa
Visibilité: 16.1 km
Quelques nuages à une hauteur de 8000 ft
Nuages fragmentés à une hauteur de 10000 ft
pluie faible

METAR: KTAN 251252Z AUTO 00000KT 10SM -RA FEW080 BKN100 13/11 A3050 RMK AO2 RAB27 SLP326 P0000 T01280111

Heure: 09:25 (13:25 UTC)


TAF: absent

Observations et prévisions météorologiques de plus de 4000 aéroports (messages METAR et TAF).

Les stations disponibles sont représentées par des disques jaunes et rouges sur la carte.

Passer la souris dessus pour voir le nom de la station.

Cliquer dessus pour voir les observations et prévisions météorologiques.

Pour changer de carte: cliquez sur les boutons verts avec une croix noire pour zoomer, sur le bouton vert avec un tiret pour effectuer un zoom arrière, ou sur les flèches vertes pour les cartes adjacentes.


METAR-TAF: